Погода в Братолюбовке

Погода в Братолюбовке : погода сейчас, прогноз погоды и архив. Всё, что Вы хотите узнать о погоде в Братолюбовке!

Поиск расширенной информации на нашем сайте:

Другие новости

Новости СМИ2

Главная страница сайта

Новости сайта

03.07.2017

Напоминаем, что на нашем специализированном сайте Метеоцентр.Азия вы можете получить высокодетализированные автоматические прогнозы погоды по пунктам России, СНГ и мира в авиационном формате (включающие направление и скорость ветра, видимость, явления погоды, количество и форму облачности, нижнюю и верхнюю границу облачности).


Погода в Братолюбовке - сегодня

Время (UTC), дата Ветер
(°,м/с) 
Видим.   Явления Облачность Т
(°С)
Тd
(°С)
f(%) Тe
(°С)
Pmin
(гПа)
dP
(гПа)
Po
(мм)
O2
(г/м3)
Тmin Tmax R s Состояние
почвы
18 15.04.18 190 (Ю) 50000 м    ясно 
+0 -9.4 49 +1  1008.8  -0.2  735  297           
21 15.04.18 140 (ЮВ) 35000 м    3/0 верхняя 
[Ci fib]
-6.3 -14.4 53 -6  1009  -0.5  735  304           
03 16.04.18 250 (З) 20000 м    8/0 верхняя 
[Cs]
+14 -8.4 20 +14  1006  -0.9  734  282           
09 16.04.18 250 (З) 3{12}  20000 м    3/0 верхняя 
[Ci sp]
+16.5 -10 15 +17  1003.2  -0.7  732  279           
12 16.04.18 180 (Ю) 4{11}  50000 м    8/0 средняя, верхняя 
[Ac lent|Ci sp]
+10.2 -4.7 35 +9  1005  1.2  733  285    +18.8       
15 16.04.18 210 (ЮЗ) 50000 м    4/0 верхняя 
[Ci fib]
+6.9 -2.7 50 +7  1005.5  0.2  733  288           
18 16.04.18 160 (Ю) 50000 м    ясно 
+5.7 -3.7 51 +7  1004.9  -0.7  733  290           
00 17.04.18 150 (ЮВ) 5000 м  дым  6/0 верхняя 
[Ci fib]
+10.4 -4.4 35 +11  1004.2  -0.6  733  285  -0.9        влажная 
03 17.04.18 210 (ЮЗ) 9000 м  дым  10/0 верхняя 
[Cs]
+16.1 -3.1 27 +17  1003.1  -0.6  732  279           
06 17.04.18 320 (СЗ) 25000 м    10/0 верхняя 
[Cs]
+16.6 -1.7 29 +17  1003  -0.1  732  278           
09 17.04.18 320 (СЗ) 22000 м    10/0 средняя 
[Ac As]
+15.2 -1.6 31 +17  1003.5  0.4  732  280           
15 17.04.18 340 (С) 50000 м    10/0 средняя, верхняя 
[Ac lent|Ci fib]
+8.3 -6.5 34 +9  1007.2  1.1  735  288           
18 17.04.18 тихо ()   50000 м    ясно 
+2.3 -8.6 44 +2  1007.9  0.1  735  294           
21 17.04.18 тихо ()   4700 м  дым  4/0 верхняя 
[Ci sp]
-0.6 -9.5 51 -1  1009.7  1.4  736  298           
00 18.04.18 310 (СЗ) 40000 м    10/0 верхняя 
[Ci fib]
+6.3 -7.4 37 +7  1010.7  1.7  737  291  -0.9        влажная 
03 18.04.18 340 (С) 20000 м    9/0 верхняя 
[Ci sp]
+10.1 -14.9 16 +10  1010.2  -0.2  737  288           
06 18.04.18 270 (З) 20000 м    3/0 верхняя 
[Ci sp]
+12.8 -13.9 14 +13  1008.6  -1.3  736  284           
09 18.04.18 250 (З) 20000 м    8/0 верхняя 
[Ci sp]
+13.4 -12 16 +14  1007.8  -0.7  735  283           
15 18.04.18 тихо ()   35000 м    ясно 
+1.2 -10 43 +1  1009.1  -0.2  736  296           
18 18.04.18 тихо ()   8000 м  дым  ясно 
-1.8 -7 68 -2  1009.3  -0.1  735  299           
21 18.04.18 тихо ()   4500 м  дым  10/0 средняя 
[Ac As]
-1.2 -10.8 48 -1  1010  0.7  736  299           
00 19.04.18 тихо ()   4200 м  дым  10/0 верхняя 
[Cs]
+7.1 -9.4 30 +7  1009.9  0.7  737  290  -2.9        влажная 
03 19.04.18 240 (ЮЗ) 27000 м    ясно 
+15.1 -11.6 15 +15  1008.3  -0.8  736  282           
06 19.04.18 240 (ЮЗ) 5-10{11}  20000 м    ясно 
+18.1 -11 13 +18  1005.5  -2.5  734  278           
09 19.04.18 230 (ЮЗ) 4{11}  35000 м    9/8 600 м кучево-дожд., средняя, верхняя 
[Cb cap|Ac trans|Ci fib]
+18.2 -2.2 25 +19  1003.6  -1.7  733  277           
Время (UTC), дата Ветер
(°,м/с) 
Видим.   Явления Облачность Т
(°С)
Тd
(°С)
f(%) Тe
(°С)
Pmin
(гПа)
dP
(гПа)
Po
(мм)
O2
(г/м3)
Тmin Tmax R s Состояние
почвы

Для получения пояснительной информации подведите курсор к названию столбца.

ПОГОДА в Братолюбовке - архив

Всё, что Вы хотите узнать о погоде в Братолюбовке - удобно и подробно!

Выберите нужную дату (начиная с 1 января 2015* года) и нажмите кнопку "Найти".
Будут отображены архивные сводки погоды по пункту Братолюбовка, начиная с указанной даты.


Отображать данные в формате CSV (для использования в таблицах Excel)


Внимание! Наш архив погоды предназначен исключительно для личного некоммерческого использования в познавательных целях. Если Вам необходимы официальные справки о состоянии погоды (для производственных, юридических, коммерческих и т.п. целей), обращайтесь в органы Росгидромета.

*Примечание: данная дата относится к архиву по метеостанциям СССР (Россия, СНГ, Балтия).
Архив по метеостанциям Зарубежной Европы и Азии (кроме Китая) хранится 10 дней, по другим регионам земного шара (Китай, Африка, Америка, Австралия, Океания) - 1 день.

Братолюбовка - район местоположения метеостанции


Название, широта, долгота, высота метеостанции:
Братолюбовка 50.8°ш. 129.3°д. 227 м над ур. моря [Российская Федерация]

Дополнительная информация

В oтличие oт бoльшинства пoгoдных сайтoв мы публикуем пoдрoбную метеoинфoрмацию в детальнoм прoфессиoнальнoм фoрмате.

Характеристики температуры и влажнoсти вoздуха измеряются на высoте 2 м в тени вдали oт зданий и деревьев.
Скoрoсть ветра измеряется на высoте 10 м (на урoвне рoста челoвека скoрoсть ветра ниже в 1.5-2 раза). Если метеoстанция нахoдится в гoрoде или в лесу, тo скoрoсть ветра занижена на 2-4 м/с пo сравнению с oткрытым местoм. Скoрoсть ветра над акватoриями крупных рек и oзёр, а также на вершинах хoлмoв на 2-5 м/с выше, чем в oбычных услoвиях.
Атмoсфернoе давление в разных тoчках местнoсти мoжет значительнo oтличаться oт давления на метеoстанции, в зависимoсти oт услoвий рельефа (при пoдъёме на 10 м давление пoнижается примернo на 1 мм рт.ст.).